Home > Weather > Bata > Past weeks

Flag for Equatorial Guinea Weather for the Past 2 Weeks in Bata, Equatorial Guinea

Now
86 °F

Passing clouds.


Feels Like: 99 °F
Forecast: 80 / 87 °F
Wind: 6 mph from Southwest

Location: Libreville Airport

Current Time: Feb 11, 2016 at 8:28:05 PM

Latest Report: Feb 11, 2016 at 8:00 PM


Visibility: 4 mi

Pressure: 29.86 "Hg

Humidity: 79%

Dew point: 79 °F

Location of BataLocation

Historic Weather in Bata — Graph

°F

Bata Temperature Yesterday

Maximum temperature yesterday: 90 °F (at 1:00 PM)
Minimum temperature yesterday: 82 °F (at 8:00 AM)
Average temperature yesterday: 85 °F

High & Low Weather Summary for the Past Weeks

 TemperatureHumidityPressure
High90 °F (Feb 10, 1:00 PM)100% (Jan 27, 11:00 PM)29.98 "Hg (Jan 27, 11:00 PM)
Low73 °F (Feb 6, 9:51 PM)66% (Jan 28, 1:00 PM)29.77 "Hg (Jan 28, 5:00 PM)
Average83 °F84%29.87 "Hg
* Reported Jan 27 7:00 PM — Feb 11 7:00 PM, Bata, Weather by CustomWeather, © 2016

Note: Actual official high and low records may vary slightly from our data, if they occured in-between our weather recording intervals... More about our weather records

Advertising

Bata Weather History for the Previous 24 Hours

 ConditionsComfort  
Time TempWeatherWind HumidityBarometerVisibility
7:00 PM
Thu, Feb 11
86 °FPassing clouds.7 mph79%29.83 "Hg4 mi
4:00 PM88 °FPassing clouds.9 mph75%29.77 "Hg5 mi
3:00 PM88 °FPassing clouds.8 mph75%29.80 "Hg5 mi
2:00 PM88 °FPassing clouds.7 mph70%29.83 "Hg5 mi
1:00 PM88 °FPassing clouds.6 mph70%29.86 "Hg6 mi
12:00 PM86 °FPassing clouds.7 mph75%29.86 "Hg5 mi
11:00 AM86 °FPassing clouds.7 mph75%29.89 "Hg5 mi
10:00 AM86 °FPassing clouds.6 mph70%29.89 "Hg5 mi
9:00 AM82 °FScattered clouds.6 mph79%29.89 "Hg4 mi
8:00 AM81 °FScattered clouds.2 mph84%29.89 "Hg4 mi
7:00 AM81 °FThunderstorms. Scattered clouds.9 mph89%29.86 "Hg4 mi
6:00 AM81 °FPassing clouds.3 mph89%29.86 "Hg5 mi
5:00 AM84 °FPassing clouds.5 mph79%29.83 "Hg5 mi
4:00 AM84 °FPassing clouds.6 mph79%29.83 "Hg5 mi
3:00 AM84 °FPassing clouds.7 mph79%29.83 "Hg5 mi
2:00 AM82 °FPassing clouds.7 mph79%29.83 "Hg5 mi
1:00 AM84 °FPassing clouds.2 mph84%29.86 "Hg5 mi
12:00 AM84 °FPassing clouds.5 mph84%29.89 "Hg5 mi
11:00 PM
Wed, Feb 10
84 °FPassing clouds.6 mph84%29.89 "Hg5 mi
10:00 PM84 °FPassing clouds.6 mph84%29.89 "Hg5 mi
9:00 PM84 °FPassing clouds.6 mph84%29.86 "Hg5 mi
8:00 PM86 °FPassing clouds.6 mph79%29.83 "Hg5 mi
Weather by CustomWeather, © 2016

See weather overviewHow to use our weather pages